TimeMDT,TemperatureF,Dew PointF,Humidity,Sea Level PressureIn,VisibilityMPH,Wind Direction,Wind SpeedMPH,Gust SpeedMPH,PrecipitationIn,Events,Conditions,WindDirDegrees,DateUTC
12:53 AM,62.1,46.0,56,29.95,10.0,NNE,9.2,-,N/A,,Clear,20,2013-07-20 06:53:00
1:53 AM,63.0,46.9,56,29.96,10.0,NNE,11.5,-,N/A,,Clear,20,2013-07-20 07:53:00
2:53 AM,61.0,50.0,67,29.97,10.0,NNE,11.5,-,N/A,,Clear,20,2013-07-20 08:53:00
3:53 AM,57.0,50.0,77,29.98,10.0,North,4.6,-,N/A,,Clear,10,2013-07-20 09:53:00
4:53 AM,50.0,48.0,93,29.99,10.0,WSW,8.1,-,N/A,,Clear,250,2013-07-20 10:53:00
5:53 AM,51.1,48.9,92,29.98,10.0,SW,5.8,-,N/A,,Clear,220,2013-07-20 11:53:00
6:53 AM,55.9,51.1,84,29.98,10.0,SSW,3.5,-,N/A,,Clear,200,2013-07-20 12:53:00
7:53 AM,61.0,51.1,70,29.98,10.0,SSW,3.5,-,N/A,,Clear,200,2013-07-20 13:53:00
8:53 AM,66.0,51.1,59,29.96,10.0,South,4.6,-,N/A,,Clear,190,2013-07-20 14:53:00
9:53 AM,71.1,51.1,49,29.95,10.0,SSW,8.1,-,N/A,,Clear,200,2013-07-20 15:53:00
10:53 AM,75.0,50.0,41,29.93,10.0,SSW,6.9,-,N/A,,Clear,200,2013-07-20 16:53:00
11:53 AM,80.1,51.1,36,29.90,10.0,Variable,3.5,-,N/A,,Clear,0,2013-07-20 17:53:00
12:53 PM,84.0,43.0,24,29.88,10.0,West,8.1,-,N/A,,Clear,280,2013-07-20 18:53:00
1:53 PM,86.0,39.0,19,29.86,10.0,West,9.2,-,N/A,,Scattered Clouds,260,2013-07-20 19:53:00
2:53 PM,87.1,35.1,16,29.84,10.0,Calm,Calm,-,N/A,,Clear,0,2013-07-20 20:53:00
3:53 PM,90.0,37.0,15,29.82,10.0,NNW,11.5,-,N/A,,Clear,340,2013-07-20 21:53:00
4:53 PM,89.1,37.0,16,29.81,10.0,Variable,3.5,-,N/A,,Clear,0,2013-07-20 22:53:00
5:53 PM,89.1,37.0,16,29.78,10.0,Calm,Calm,-,N/A,,Clear,0,2013-07-20 23:53:00
6:53 PM,90.0,36.0,15,29.75,10.0,WNW,4.6,-,N/A,,Clear,290,2013-07-21 00:53:00
7:53 PM,86.0,37.0,18,29.74,10.0,ESE,5.8,-,N/A,,Clear,120,2013-07-21 01:53:00
8:53 PM,80.1,39.9,24,29.74,10.0,Calm,Calm,-,N/A,,Clear,0,2013-07-21 02:53:00
9:53 PM,72.0,37.9,29,29.76,10.0,North,3.5,-,N/A,,Clear,10,2013-07-21 03:53:00
10:53 PM,69.1,41.0,36,29.75,10.0,Calm,Calm,-,N/A,,Clear,0,2013-07-21 04:53:00
11:53 PM,64.9,43.0,45,29.75,10.0,South,4.6,-,N/A,,Clear,170,2013-07-21 05:53:00